Location: Newark
(12.0500°N, 61.7500°W)
Time: 02:33:41
(UTC+00:00)

Envisat - Pass Details

Date: 27 January 2020
Orbit: 764 x 766 km, 98.1° (Epoch: 25 February)

Event Time Altitude Azimuth Distance (km) Brightness Sun altitude
Rises 22:44:22 0° 183° (S) 3,222 6.5 -9.5°
Reaches altitude 10° 22:46:48 10° 191° (S) 2,296 5.9 -10.1°
Maximum altitude 22:51:31 40° 259° (W) 1,121 4.6 -11.2°
Drops below altitude 10° 22:56:14 10° 328° (NNW) 2,297 5.7 -12.3°
Sets 22:58:40 0° 336° (NNW) 3,223 6.3 -12.9°
